This is the latest recevied weather packets stored in our database for station/object WX0ABE-13. If no packets are shown the sender has not sent any weather packets the latest 10 day(s).
| Time | Temp. | Humidity | Pressure | Rain* | Wind** | Luminosity | Snow |
|---|---|---|---|---|---|---|---|
| 1787621861 | 29.44° C | 39% | 1017.7 hPa | 0 mm | - | 2 W/m² | - |
| 1787621556 | 29.44° C | 36% | 1017.8 hPa | 0 mm | - | 3 W/m² | - |
| 1787621252 | 29.44° C | 40% | 1018 hPa | 0 mm | - | 4 W/m² | - |
| 1787620948 | 30° C | 39% | 1017.7 hPa | 0 mm | - | 7 W/m² | - |
| 1787620648 | 30.56° C | 40% | 1017.6 hPa | 0 mm | - | 9 W/m² | - |
| 1787620344 | 30.56° C | 38% | 1017.7 hPa | 0 mm | - | 14 W/m² | - |
| 1787620040 | 31.11° C | 37% | 1017.5 hPa | 0 mm | - | 21 W/m² | - |
| 1787619740 | 31.11° C | 35% | 1017.8 hPa | 0 mm | - | 25 W/m² | - |
| 1787619435 | 31.11° C | 33% | 1017.6 hPa | 0 mm | - | 27 W/m² | - |
| 1787619135 | 31.67° C | 31% | 1017.6 hPa | 0 mm | - | 29 W/m² | - |
| 1787618834 | 31.67° C | 31% | 1017.4 hPa | 0 mm | - | 31 W/m² | - |
| 1787618532 | 32.22° C | 30% | 1017.5 hPa | 0 mm | - | 31 W/m² | - |
| 1787618228 | 32.22° C | 27% | 1017.4 hPa | 0 mm | - | 30 W/m² | - |
| 1787617924 | 32.22° C | 27% | 1017.4 hPa | 0 mm | - | 29 W/m² | - |
| 1787617623 | 32.78° C | 26% | 1017.7 hPa | 0 mm | - | 31 W/m² | - |
| 1787617318 | 33.33° C | 26% | 1017.4 hPa | 0 mm | - | 33 W/m² | - |
| 1787617017 | 33.89° C | 26% | 1017.3 hPa | 0 mm | - | 37 W/m² | - |
| 1787616713 | 33.89° C | 25% | 1017.4 hPa | 0 mm | - | 50 W/m² | - |
| 1787616411 | 34.44° C | 24% | 1017.5 hPa | 0 mm | - | 83 W/m² | - |
| 1787616110 | 34.44° C | 23% | 1017.6 hPa | 0 mm | - | 86 W/m² | - |
| 1787615810 | 35° C | 23% | 1017.5 hPa | 0 mm | - | 125 W/m² | - |
| 1787615506 | 35° C | 23% | 1017.5 hPa | 0 mm | - | 155 W/m² | - |
| 1787615201 | 35° C | 23% | 1017.4 hPa | 0 mm | - | 169 W/m² | - |
| 1787614897 | 35° C | 24% | 1017.4 hPa | 0 mm | - | 186 W/m² | - |
| 1787614592 | 35° C | 26% | 1017.5 hPa | 0 mm | - | 156 W/m² | - |
* Rain latest hour (hover to see other rain measurements)
** Current wind speed in m/s (hover to see current wind gust speed)